Domov               UVHVVR             MKGP            O straneh              
ZDRAVSTVENO VARSTVO RASTLIN
  MREŽA AGROMET. POSTAJ
 ► PROGNOSTIČNA OBVESTILA
AGROMETEOROLOŠKI PODATKI -
ARSO
OBVLADOVANJE TVEGANJ ZARADI
NEUGODNIH VREMENSKIH RAZMER
  ► NARAVNE NESREČE
  ► SUŠA/MOČA
  ► NAMAKANJE
  ► ŽLED (gozdarstvo)
KARTOGRAFSKI PRIKAZI
SPLETNE POVEZAVE
PROJEKTI IN PUBLIKACIJE

AGROMETEOROLOŠKA MREŽA: VREMENSKE POSTAJE IN FENOLOŠKA OPAZOVANJA

Pregled podatkov za lokacijo Virštanj, meteorološka postaja 39749

Pregled senzorjev na lokaciji

ID Ime Zadnja
vrednost
Datum
zadnje
spremembe
Tip
senzorja
3124 Temperatura 2 m ( °C) 14,46 °C 17.10.2017 22:59 50YA
3125 Relativna vlaga 2 m (% RH) 93,82 % RH 17.10.2017 23:00 50YA
3127 Padavine 0.2 mm (mm) 0 mm 17.10.2017 23:00 Rain-O-Matic

Pregled podatkov zadnjih 24 ur

Zap.
št.
Datum in čas Virštanj
Padavine
0.2
mm
Relativna
vlaga
2
m
Temperatura
2
m
0 17.10.2017 22:00 0 93,82 14,46
1 17.10.2017 21:30 0 92,38 14,68
2 17.10.2017 21:00 0 91,67 14,95
3 17.10.2017 20:30 0 90,55 15,29
4 17.10.2017 20:00 0 89,94 15,58
5 17.10.2017 19:30 0 87,55 16,12
6 17.10.2017 19:00 0 85,52 16,58
7 17.10.2017 18:30 0 83,47 17
8 17.10.2017 18:00 0 81,15 17,58
9 17.10.2017 17:30 0 77,8 18,1
10 17.10.2017 17:00 0 74,29 18,71
11 17.10.2017 16:30 0 73,72 19,29
12 17.10.2017 16:00 0 71,11 20,12
13 17.10.2017 15:30 0 68,21 20,71
14 17.10.2017 15:00 0 66,67 21,49
15 17.10.2017 14:30 0 66,03 21,66
16 17.10.2017 14:00 0 66,35 21,59
17 17.10.2017 13:30 0 65,91 21,34
18 17.10.2017 13:00 0 66,59 21,15
19 17.10.2017 12:30 0 65,54 21
20 17.10.2017 12:00 0 66,11 20,49
21 17.10.2017 11:30 0 68,94 19,56
22 17.10.2017 11:00 0 71,89 18,46
23 17.10.2017 10:30 0 70,31 18,8
24 17.10.2017 10:00 0 72,04 18,46
25 17.10.2017 09:30 0 79,8 16,56
26 17.10.2017 09:00 0 81,32 15,82
27 17.10.2017 08:30 0 86,74 14,51
28 17.10.2017 08:00 0 87,69 14,36
29 17.10.2017 07:30 0 91,09 13,63
30 17.10.2017 07:00 0 95,51 12,31
31 17.10.2017 06:30 0 96,92 11,58
32 17.10.2017 06:00 0 98 11,82
33 17.10.2017 05:30 0 97,12 11,67
34 17.10.2017 05:00 0 96,17 12,11
35 17.10.2017 04:30 0 97 12,01
36 17.10.2017 04:00 0 95,97 11,65
37 17.10.2017 03:30 0 92,63 12,77
38 17.10.2017 03:00 0 92,6 12,87
39 17.10.2017 02:30 0 92,38 13,02
40 17.10.2017 02:00 0 93,36 12,6
41 17.10.2017 01:30 0 91,55 12,75
42 17.10.2017 01:00 0 88,45 13,82
43 17.10.2017 00:30 0 88,28 13,72
© 2011 Ministrstvo za kmetijstvo, gozdarstvo in prehrano. Vse pravice pridržane.